Weather History for Limon, CO

Change the Weather History Date:

Tuesday, May 7, 2013

  Actual Average Record
Temperature  
Mean Temperature 52 °F -  
Max Temperature 71 °F - 84 °F (2004)
Min Temperature 32 °F - 25 °F (1999)
Degree Days  
Heating Degree Days 13    
Month to date heating degree days 170  
Cooling Degree Days 0    
Month to date cooling degree days 0  
Growing Degree Days 2 (Base 50)    
Moisture  
Dew Point 36 °F    
Average Humidity 62    
Maximum Humidity 100    
Minimum Humidity 23    
Precipitation  
Precipitation T in - 0.43 in (2012)
Month to date precipitation 0.22  
Year to date precipitation 2.72  
Sea Level Pressure  
Sea Level Pressure 29.84 in    
Wind  
Wind Speed 5 mph (NNW)    
Max Wind Speed 20 mph    
Max Gust Speed 26 mph    
Visibility 10 miles    
Events Thunderstorm    
T = Trace of Precipitation, MM = Missing Value Source: NWS Daily Summary

Daily Weather History Graph

Daily Weather History Graph

Search for Another Location

Airport:

Trip Planner

Search our weather history database for the weather conditions in past years. The results will help you decide how hot, cold, wet, or windy it might be!

Date:

Astronomy

May. 07, 2013 Rise Set
Actual Time 5:48 AM MDT 7:54 PM MDT
Civil Twilight 5:19 AM MDT 8:23 PM MDT
Nautical Twilight 4:43 AM MDT 8:59 PM MDT
Astronomical Twilight 4:04 AM MDT 9:39 PM MDT
Moon 4:23 AM MDT (5/7) 5:56 PM MDT (5/7)
Length of Visible Light 15h 04m
Length of Day
14h 05m
Waning Crescent, 5% of the Moon is Illuminated
May 7
Waning Crescent
May 9
New
May 17
First Quarter
May 24
Full
May 31
Last Quarter

Hourly Weather History & Observations

Time (MDT) Temp. Windchill Dew Point Humidity Pressure Visibility Wind Dir Wind Speed Gust Speed Precip Events Conditions
12:55 AM 39.9 °F - 37.0 °F 89% 29.86 in 10.0 mi Calm Calm - N/A   Clear
1:55 AM 41.0 °F - 37.9 °F 89% 29.84 in 10.0 mi Calm Calm - N/A   Mostly Cloudy
2:55 AM 37.0 °F - 35.1 °F 93% 29.84 in 10.0 mi Calm Calm - N/A   Clear
3:55 AM 36.0 °F - 34.0 °F 93% 29.84 in 10.0 mi Calm Calm - N/A   Clear
4:55 AM 34.0 °F - 33.1 °F 96% 29.85 in 10.0 mi Calm Calm - N/A   Clear
5:55 AM 33.1 °F 27.7 °F 32.0 °F 96% 29.86 in 8.0 mi NNW 5.8 mph - N/A   Clear
6:55 AM 39.9 °F 36.7 °F 39.0 °F 97% 29.86 in 10.0 mi NW 4.6 mph - N/A   Clear
7:55 AM 48.0 °F - 39.9 °F 74% 29.86 in 10.0 mi West 6.9 mph - N/A   Overcast
8:55 AM 55.0 °F - 37.9 °F 53% 29.85 in 10.0 mi WNW 10.4 mph - N/A   Overcast
9:55 AM 60.1 °F - 37.9 °F 44% 29.85 in 10.0 mi NW 8.1 mph - N/A   Overcast
10:55 AM 64.9 °F - 36.0 °F 34% 29.83 in 10.0 mi North 12.7 mph - N/A   Scattered Clouds
11:55 AM 64.9 °F - 34.0 °F 32% 29.83 in 10.0 mi WNW 8.1 mph 21.9 mph N/A   Scattered Clouds
12:55 PM 64.0 °F - 34.0 °F 33% 29.83 in 10.0 mi NNW 8.1 mph - N/A   Mostly Cloudy
1:55 PM 66.0 °F - 33.1 °F 29% 29.81 in 10.0 mi WNW 12.7 mph 17.3 mph N/A   Mostly Cloudy
2:55 PM 68.0 °F - 32.0 °F 26% 29.80 in 10.0 mi Variable 3.5 mph - N/A   Partly Cloudy
3:55 PM 71.1 °F - 32.0 °F 24% 29.78 in 10.0 mi NW 6.9 mph - N/A   Mostly Cloudy
4:55 PM 69.1 °F - 30.9 °F 24% 29.79 in 10.0 mi NW 4.6 mph - N/A   Mostly Cloudy
5:55 PM 66.9 °F - 30.9 °F 26% 29.81 in 10.0 mi NNW 5.8 mph - N/A   Overcast
6:55 PM 63.0 °F - 35.1 °F 35% 29.81 in 10.0 mi NNE 11.5 mph - N/A   Mostly Cloudy
7:55 PM 57.9 °F - 41.0 °F 53% 29.81 in 10.0 mi East 6.9 mph - N/A   Mostly Cloudy
8:55 PM 57.0 °F - 41.0 °F 55% 29.82 in 10.0 mi ENE 10.4 mph - N/A   Overcast
9:55 PM 53.1 °F - 41.0 °F 64% 29.85 in 10.0 mi North 17.3 mph - 0.00 in Thunderstorm Mostly Cloudy
10:30 PM 51.8 °F - 42.8 °F 71% 30.01 in 10.0 mi NNW 8.1 mph - N/A   Overcast
10:55 PM 50.0 °F - 42.1 °F 74% 29.87 in 10.0 mi WNW 15.0 mph - N/A   Overcast
11:55 PM 46.9 °F - 41.0 °F 80% 29.86 in 10.0 mi North 10.4 mph - N/A   Partly Cloudy